Location: T�bingen+AIT
(48.5342°N, 9.0700°E)
Time: 01:50:12
(UTC+02:00)

NOSS 3-1 (A) - Pass Details

Date: 14 September 2017
Orbit: 824 x 1388 km, 63.4° (Epoch: 21 September)

Event Time Altitude Azimuth Distance (km) Brightness Sun altitude
Rises 21:57:27 0° 318° (NW) 3,915 8.0 -22.4°
Reaches altitude 10° 22:00:01 10° 320° (NW) 3,032 7.1 -22.7°
Maximum altitude 22:07:23 74° 46° (NE) 1,296 4.0 -23.7°
Enters shadow 22:10:20 43° 120° (ESE) 1,735 4.3 -24.1°
